Date String (YYYY-MM-DD hh:mm:ss) UTC,Instrument flags,absolute air pressure of the measurement (hPa),sample flow rate (lpm),inlet stack bypass flow (lpm),air temperature of the measurement (°C),ambient temperature measured by the external sensor (°C),aerosol sample conditioner tube jacket temperature (°C),OPC LED temperature (°C),internal box temperature (°C),relative humidity of the measurement (%),span deviation,mass concentration of particles derived from Lorenz-Mie calculation of OPC scattering (μg/m³),mass concentration of particles derived from Lorenz-Mie calculation of OPC scattering (μg/m³),mass concentration of particles derived from Lorenz-Mie calculation of OPC scattering (μg/m³)
DateTimeUTC,F1_M11,P_M11,Q1_M11,Q2_M11,T1_M11,T2_M11,T3_M11,T4_M11,T5_M11,U1_M11,ZSPAN_M11,X0_M11,X2_M11,X1_M11
2024-03-30 17:00:00,SystemResetWarning,0823.4,5.01,000.00,021.2,020.7,000.0,029.5,023.0,25.9,-001.5,0012.64,0007.46,0007.05
2024-03-30 17:01:00,SystemResetWarning,0823.4,4.99,000.00,021.2,020.7,000.0,029.5,023.0,25.9,-001.5,0012.65,0007.49,0007.08
2024-03-30 17:02:00,SystemResetWarning,0823.4,4.98,000.00,021.2,020.7,000.0,029.5,023.0,25.8,-001.2,0012.86,0007.54,0007.12
2024-03-30 17:03:00,SystemResetWarning,0823.4,5.00,000.00,021.2,020.7,000.0,029.5,023.0,25.8,-001.2,0013.40,0007.58,0007.16
2024-03-30 17:04:00,SystemResetWarning,0823.4,5.01,000.00,021.2,020.8,000.0,029.6,023.1,25.7,-001.3,0013.63,0007.60,0007.17
2024-03-30 17:05:00,SystemResetWarning,0823.4,5.01,000.00,021.2,020.8,000.0,029.6,023.1,25.9,-000.9,0013.56,0007.61,0007.18
2024-03-30 17:06:00,SystemResetWarning,0823.4,5.01,000.00,021.3,020.8,000.0,029.6,023.1,26.4,-000.7,0013.40,0007.62,0007.18
2024-03-30 17:07:00,SystemResetWarning,0823.4,5.00,000.00,021.3,020.8,000.0,029.6,023.1,26.3,-000.6,0013.70,0007.61,0007.17
2024-03-30 17:08:00,SystemResetWarning,0823.4,4.99,000.00,021.3,020.8,000.0,029.6,023.1,26.3,-000.3,0014.01,0007.65,0007.18
2024-03-30 17:09:00,SystemResetWarning,0823.4,4.99,000.00,021.3,020.8,000.0,029.6,023.1,26.3,0000.3,0013.64,0007.65,0007.18
2024-03-30 17:10:00,SystemResetWarning,0823.4,4.99,000.00,021.3,020.8,000.0,029.6,023.1,26.2,0000.3,0014.32,0007.65,0007.18
2024-03-30 17:11:00,SystemResetWarning,0823.4,5.01,000.00,021.3,020.8,000.0,029.6,023.1,26.0,0000.5,0014.76,0007.64,0007.19
2024-03-30 17:12:00,SystemResetWarning,0823.4,5.00,000.00,021.3,020.9,000.0,029.7,023.2,25.7,0001.3,0014.50,0007.65,0007.22
2024-03-30 17:13:00,SystemResetWarning,0823.5,5.01,000.00,021.3,020.9,000.0,029.7,023.2,25.6,0001.0,0014.77,0007.66,0007.23
2024-03-30 17:14:00,SystemResetWarning,0823.4,5.01,000.00,021.3,020.9,000.0,029.7,023.2,25.7,0000.9,0014.42,0007.68,0007.25
2024-03-30 17:15:00,SystemResetWarning,0823.4,5.01,000.00,021.4,020.9,000.0,029.7,023.2,25.7,0000.3,0014.39,0007.69,0007.29
2024-03-30 17:16:00,SystemResetWarning,0823.4,5.00,000.00,021.4,020.9,000.0,029.7,023.2,25.3,0000.1,0014.10,0007.70,0007.32
2024-03-30 17:17:00,SystemResetWarning,0823.4,5.00,000.00,021.4,020.9,000.0,029.7,023.2,25.3,0000.3,0013.84,0007.73,0007.34
2024-03-30 17:18:00,SystemResetWarning,0823.4,4.99,000.00,021.4,020.9,000.0,029.7,023.2,25.8,-000.1,0014.57,0007.76,0007.36
2024-03-30 17:19:00,SystemResetWarning,0823.4,5.00,000.00,021.4,020.9,000.0,029.7,023.3,26.1,-000.5,0014.30,0007.73,0007.34
2024-03-30 17:20:00,SystemResetWarning,0823.4,4.99,000.00,021.4,021.0,000.0,029.8,023.3,25.5,-000.6,0014.47,0007.75,0007.34
2024-03-30 17:21:00,SystemResetWarning,0823.4,4.99,000.00,021.4,021.0,000.0,029.8,023.3,26.5,-000.5,0015.68,0007.76,0007.34
2024-03-30 17:22:00,SystemResetWarning,0823.4,5.01,000.00,021.5,021.0,000.0,029.8,023.3,26.1,-000.2,0014.90,0007.76,0007.32
2024-03-30 17:23:00,SystemResetWarning,0823.4,5.01,000.00,021.5,021.0,000.0,029.8,023.3,26.3,-000.7,0014.94,0007.71,0007.28
2024-03-30 17:24:00,SystemResetWarning,0823.3,5.01,000.00,021.5,021.0,000.0,029.8,023.3,25.9,-000.6,0015.01,0007.69,0007.23
2024-03-30 17:25:00,SystemResetWarning,0823.3,4.99,000.00,021.5,021.0,000.0,029.8,023.3,26.4,-000.6,0015.28,0007.67,0007.18
2024-03-30 17:26:00,SystemResetWarning,0823.2,4.99,000.00,021.5,021.0,000.0,029.8,023.3,27.0,-000.3,0014.81,0007.59,0007.11
2024-03-30 17:27:00,SystemResetWarning,0823.2,4.99,000.00,021.5,021.1,000.0,029.8,023.4,26.7,-000.1,0014.76,0007.50,0007.03
2024-03-30 17:28:00,SystemResetWarning,0823.2,5.01,000.00,021.5,021.1,000.0,029.9,023.4,26.0,-000.5,0014.84,0007.42,0006.96
2024-03-30 17:29:00,SystemResetWarning,0823.2,5.01,000.00,021.6,021.1,000.0,029.9,023.4,26.3,-000.5,0014.33,0007.32,0006.88
2024-03-30 17:30:00,SystemResetWarning,0823.2,5.01,000.00,021.6,021.1,000.0,029.9,023.4,26.0,-000.2,0014.10,0007.32,0006.85
2024-03-30 17:31:00,SystemResetWarning,0823.1,5.00,000.00,021.6,021.1,000.0,029.9,023.4,26.2,-000.5,0013.96,0007.30,0006.83
2024-03-30 17:32:00,SystemResetWarning,0823.1,5.00,000.00,021.6,021.1,000.0,029.9,023.4,26.4,-000.5,0012.15,0007.22,0006.78
2024-03-30 17:33:00,SystemResetWarning,0823.1,5.00,000.00,021.6,021.1,000.0,029.9,023.4,26.0,-000.3,0012.42,0007.15,0006.75
2024-03-30 17:34:00,SystemResetWarning,0823.0,5.00,000.00,021.6,021.2,000.0,029.9,023.5,26.5,-000.2,0012.76,0007.12,0006.73
2024-03-30 17:35:00,SystemResetWarning,0823.1,5.00,000.00,021.6,021.2,000.0,030.0,023.5,26.0,-000.5,0012.43,0007.11,0006.72
2024-03-30 17:36:00,SystemResetWarning,0823.1,5.00,000.00,021.7,021.1,000.0,030.0,023.5,27.1,-000.7,0011.84,0007.07,0006.71
2024-03-30 17:37:00,SystemResetWarning,0823.1,5.00,000.00,021.7,021.1,000.0,030.0,023.5,27.2,-000.1,0012.01,0007.05,0006.69
2024-03-30 17:38:00,SystemResetWarning,0823.0,5.00,000.00,021.7,021.2,000.0,030.0,023.5,27.3,-000.6,0013.19,0007.05,0006.68
2024-03-30 17:39:00,SystemResetWarning,0823.0,5.00,000.00,021.7,021.2,000.0,030.0,023.5,26.6,-000.8,0013.68,0007.04,0006.66
2024-03-30 17:40:00,SystemResetWarning,0823.0,5.00,000.00,021.7,021.2,000.0,030.0,023.5,27.0,-000.6,0013.75,0007.02,0006.64
2024-03-30 17:41:00,SystemResetWarning,0823.0,5.00,000.00,021.7,021.2,000.0,030.0,023.5,27.4,-001.0,0013.53,0007.00,0006.61
2024-03-30 17:42:00,SystemResetWarning,0823.0,5.00,000.00,021.7,021.2,000.0,030.0,023.5,26.6,-000.6,0013.80,0006.93,0006.58
2024-03-30 17:43:00,SystemResetWarning,0823.0,5.00,000.00,021.7,021.2,000.0,030.1,023.5,26.5,-001.2,0013.89,0006.89,0006.55
2024-03-30 17:44:00,SystemResetWarning,0823.0,5.00,000.00,021.7,021.2,000.0,030.1,023.6,26.5,-001.6,0013.44,0006.85,0006.52
2024-03-30 17:45:00,SystemResetWarning,0822.9,5.01,000.00,021.7,021.2,000.0,030.1,023.6,26.9,-000.8,0013.09,0006.85,0006.50
2024-03-30 17:46:00,SystemResetWarning,0822.8,5.01,000.00,021.8,021.3,000.0,030.1,023.6,26.8,-000.4,0012.99,0006.81,0006.47
2024-03-30 17:47:00,SystemResetWarning,0823.0,5.00,000.00,021.8,021.3,000.0,030.1,023.6,26.7,-000.7,0012.93,0006.77,0006.44
2024-03-30 17:48:00,SystemResetWarning,0822.9,5.00,000.00,021.8,021.3,000.0,030.1,023.6,25.8,-001.2,0013.42,0006.77,0006.43
2024-03-30 17:49:00,SystemResetWarning,0822.9,5.00,000.00,021.8,021.3,000.0,030.1,023.6,26.1,-001.1,0012.70,0006.76,0006.43
2024-03-30 17:50:00,SystemResetWarning,0823.1,5.00,000.00,021.8,021.3,000.0,030.1,023.6,25.8,-000.3,0012.35,0006.80,0006.43
2024-03-30 17:51:00,SystemResetWarning,0823.1,5.00,000.00,021.8,021.3,000.0,030.1,023.7,26.4,-001.0,0012.04,0006.81,0006.44
2024-03-30 17:52:00,SystemResetWarning,0823.3,5.00,000.00,021.8,021.3,000.0,030.2,023.7,26.1,-000.7,0011.69,0006.81,0006.46
2024-03-30 17:53:00,SystemResetWarning,0823.1,5.00,000.00,021.8,021.4,000.0,030.2,023.7,26.8,-000.5,0011.77,0006.83,0006.47
2024-03-30 17:54:00,SystemResetWarning,0823.0,5.00,000.00,021.9,021.4,000.0,030.2,023.7,25.9,-000.0,0012.31,0006.86,0006.50
2024-03-30 17:55:00,SystemResetWarning,0822.9,5.00,000.00,021.9,021.4,000.0,030.2,023.7,25.8,0000.2,0012.61,0006.91,0006.52
2024-03-30 17:56:00,SystemResetWarning,0822.8,5.00,000.00,021.9,021.4,000.0,030.2,023.7,25.5,0000.3,0012.60,0006.94,0006.54
2024-03-30 17:57:00,SystemResetWarning,0822.9,5.00,000.00,021.9,021.4,000.0,030.2,023.7,25.2,0000.1,0012.85,0006.99,0006.58
2024-03-30 17:58:00,SystemResetWarning,0823.1,5.00,000.00,021.9,021.4,000.0,030.2,023.7,25.8,-000.1,0013.24,0007.03,0006.59
2024-03-30 17:59:00,SystemResetWarning,0823.3,5.00,000.00,021.9,021.4,000.0,030.2,023.8,25.9,0000.1,0012.80,0007.08,0006.60
